Weather History for Philip, SD

Change the Weather History Date:

Thursday, October 30, 2014

  Actual Average Record
Temperature  
Mean Temperature 38 °F 42 °F  
Max Temperature 50 °F 56 °F 89 °F (1950)
Min Temperature 26 °F 28 °F -3 °F (1991)
Degree Days  
Heating Degree Days 27 23  
Month to date heating degree days 403 494  
Since 1 July heating degree days 594 680  
Cooling Degree Days 0 0  
Month to date cooling degree days 0 0  
Year to date cooling degree days 649 814  
Moisture  
Dew Point 31 °F    
Average Humidity 73    
Maximum Humidity 92    
Minimum Humidity 53    
Precipitation  
Precipitation 0.00 in 0.04 in 0.30 in (1989)
Month to date precipitation 0.23 1.40  
Year to date precipitation 15.93 16.27  
Sea Level Pressure  
Sea Level Pressure 30.36 in    
Wind  
Wind Speed 11 mph (NNW)    
Max Wind Speed 21 mph    
Max Gust Speed 24 mph    
Visibility 10 miles    
Events      
T = Trace of Precipitation, MM = Missing Value Source: NWS Daily Summary

Daily Weather History Graph

Daily Weather History Graph

Search for Another Location

Airport:

Trip Planner

Search our weather history database for the weather conditions in past years. The results will help you decide how hot, cold, wet, or windy it might be!

Date:

Astronomy

Oct. 30, 2014 Rise Set
Actual Time 7:20 AM MDT 5:39 PM MDT
Civil Twilight 6:50 AM MDT 6:09 PM MDT
Nautical Twilight 6:16 AM MDT 6:42 PM MDT
Astronomical Twilight 5:42 AM MDT 7:16 PM MDT
Moon 1:26 PM MDT (10/30) 11:58 PM MDT (10/30)
Length of Visible Light 11h 18m
Length of Day
10h 18m
Waxing Crescent, 46% of the Moon is Illuminated
Oct 30
Waxing Crescent
Oct 30
First Quarter
Nov 6
Full
Nov 14
Last Quarter
Nov 22
New

Hourly Weather History & Observations

Time (MDT) Temp. Windchill Dew Point Humidity Pressure Visibility Wind Dir Wind Speed Gust Speed Precip Events Conditions
12:55 AM 39.9 °F 33.4 °F 33.1 °F 77% 30.09 in 10.0 mi West 10.4 mph - N/A   Clear
1:55 AM 39.9 °F 32.1 °F 33.1 °F 77% 30.10 in 10.0 mi West 13.8 mph - N/A   Clear
2:55 AM 37.9 °F 30.5 °F 32.0 °F 79% 30.12 in 10.0 mi WSW 11.5 mph - N/A   Clear
3:55 AM 36.0 °F 29.6 °F 30.9 °F 82% 30.14 in 10.0 mi West 8.1 mph - N/A   Clear
4:55 AM 36.0 °F 28.5 °F 30.9 °F 82% 30.17 in 10.0 mi West 10.4 mph - N/A   Clear
5:55 AM 36.0 °F 29.6 °F 30.9 °F 82% 30.20 in 10.0 mi WSW 8.1 mph - N/A   Clear
6:55 AM 35.1 °F 29.3 °F 30.0 °F 82% 30.24 in 10.0 mi WSW 6.9 mph - N/A   Clear
7:55 AM 37.9 °F 31.5 °F 32.0 °F 79% 30.29 in 10.0 mi West 9.2 mph - N/A   Clear
8:55 AM 44.1 °F 38.1 °F 35.1 °F 71% 30.31 in 10.0 mi NNW 11.5 mph - N/A   Clear
9:55 AM 46.0 °F 39.3 °F 35.1 °F 66% 30.33 in 10.0 mi NNW 16.1 mph - N/A   Clear
10:55 AM 48.0 °F - 34.0 °F 58% 30.35 in 10.0 mi North 13.8 mph - N/A   Clear
11:36 AM 48.9 °F - 34.0 °F 56% 30.34 in 10.0 mi North 9.2 mph - N/A   Mostly Cloudy
11:48 AM 48.9 °F - 34.0 °F 56% 30.34 in 10.0 mi North 12.7 mph - N/A   Scattered Clouds
11:55 AM 48.9 °F - 34.0 °F 56% 30.37 in 10.0 mi North 15.0 mph - N/A   Partly Cloudy
12:55 PM 48.9 °F - 34.0 °F 56% 30.37 in 10.0 mi North 17.3 mph 23.0 mph N/A   Clear
1:55 PM 48.0 °F - 33.1 °F 56% 30.38 in 10.0 mi North 10.4 mph - N/A   Partly Cloudy
2:55 PM 48.0 °F - 32.0 °F 54% 30.40 in 10.0 mi North 12.7 mph - N/A   Clear
3:55 PM 46.9 °F - 32.0 °F 56% 30.42 in 10.0 mi North 15.0 mph - N/A   Clear
4:55 PM 46.0 °F 40.6 °F 30.9 °F 56% 30.44 in 10.0 mi NNE 11.5 mph - N/A   Clear
5:55 PM 39.0 °F 33.4 °F 28.9 °F 67% 30.47 in 10.0 mi North 8.1 mph - N/A   Clear
6:55 PM 34.0 °F 27.2 °F 28.0 °F 79% 30.50 in 10.0 mi North 8.1 mph - N/A   Clear
7:55 PM 32.0 °F 24.8 °F 27.0 °F 82% 30.53 in 10.0 mi NE 8.1 mph - N/A   Clear
8:55 PM 28.9 °F 21.9 °F 26.1 °F 89% 30.55 in 10.0 mi ENE 6.9 mph - N/A   Clear
9:30 PM 28.0 °F 21.7 °F 25.0 °F 88% 30.51 in 9.0 mi East 5.8 mph - N/A   Mostly Cloudy
9:55 PM 32.0 °F 26.4 °F 28.0 °F 85% 30.56 in 10.0 mi ENE 5.8 mph - N/A   Overcast
10:55 PM 34.0 °F 29.8 °F 30.0 °F 85% 30.57 in 10.0 mi ENE 4.6 mph - N/A   Overcast
11:55 PM 35.1 °F 26.9 °F 28.9 °F 78% 30.57 in 10.0 mi ENE 11.5 mph - N/A   Overcast